EW7943 Weather Reports


time (UTC)temp
C
wind
direction
speed
KPH
gust
KPH
rain 1hr
cm
rain 24hr
cm
rain mn
cm
humidity
%
barometer
mb
20190421000016 23 9 22.5 35.4 0.00 0.00 0.00 48 1018.5
20190420234634 23 349 24.1 40.2 0.00 0.00 0.00 48 1018.5
20190420233300 23 350 19.3 33.8 0.00 0.00 0.00 48 1018.4
20190420231553 22 323 17.7 35.4 0.00 0.00 0.00 48 1018.4
20190420230044 22 360 20.9 32.2 0.00 0.00 0.00 49 1018.4
20190420224616 22 2 19.3 32.2 0.00 0.00 0.00 49 1018.3
20190420223137 21 10 16.1 24.1 0.00 0.00 0.00 49 1018.3
20190420223003 21 341 16.1 24.1 0.00 0.00 0.00 49 1018.2
20190420221522 21 6 17.7 25.7 0.00 0.00 0.00 49 1018.0
20190420220140 21 358 19.3 29.0 0.00 0.00 0.00 49 1018.0
20190420214629 21 350 14.5 32.2 0.00 0.00 0.00 49 1017.8
20190420213203 20 14 11.3 17.7 0.00 0.00 0.00 51 1017.6
20190420211524 20 12 11.3 16.1 0.00 0.00 0.00 52 1017.7
20190420210156 19 27 9.7 19.3 0.00 0.00 0.00 52 1017.5
20190420204526 19 48 8.0 11.3 0.00 0.00 0.00 52 1017.4
20190420203054 19 42 8.0 12.9 0.00 0.00 0.00 51 1017.4
20190420201642 20 57 6.4 14.5 0.00 0.00 0.00 50 1017.3
20190420200042 20 23 11.3 17.7 0.00 0.00 0.00 50 1017.2
20190420194505 20 8 12.9 20.9 0.00 0.00 0.00 48 1017.2
20190420193041 20 21 11.3 17.7 0.00 0.00 0.00 49 1017.2
20190420191736 20 2 9.7 16.1 0.00 0.00 0.00 48 1017.3
20190420190043 20 347 9.7 14.5 0.00 0.00 0.00 48 1017.3
20190420184624 20 12 8.0 12.9 0.00 0.00 0.00 49 1017.1
20190420183210 20 6 8.0 12.9 0.00 0.00 0.00 49 1017.1
20190420181554 20 13 9.7 16.1 0.00 0.00 0.00 49 1016.9
20190420180202 19 28 11.3 16.1 0.00 0.00 0.00 49 1016.7
20190420180010 20 27 11.3 17.7 0.00 0.00 0.00 49 1016.7
20190420174553 19 39 11.3 17.7 0.00 0.00 0.00 50 1016.6
20190420173157 19 28 9.7 14.5 0.00 0.00 0.00 49 1016.7
20190420171540 19 37 9.7 14.5 0.00 0.00 0.00 49 1016.8
20190420170134 19 31 9.7 14.5 0.00 0.00 0.00 48 1017.0
20190420164526 19 25 8.0 14.5 0.00 0.00 0.00 48 1017.0
20190420163044 19 35 8.0 11.3 0.00 0.00 0.00 48 1017.0
20190420161634 20 26 8.0 12.9 0.00 0.00 0.00 47 1017.2
20190420160042 20 25 8.0 12.9 0.00 0.00 0.00 47 1017.4
20190420154654 20 27 9.7 12.9 0.00 0.00 0.00 46 1017.5
20190420153023 20 43 9.7 14.5 0.00 0.00 0.00 46 1017.4
20190420151554 20 29 11.3 16.1 0.00 0.00 0.00 45 1017.5
20190420150014 20 18 11.3 16.1 0.00 0.00 0.00 45 1017.4
20190420144534 20 37 8.0 14.5 0.00 0.00 0.00 44 1017.6
20190420143241 20 39 8.0 12.9 0.00 0.00 0.00 44 1017.6
20190420141537 21 43 9.7 14.5 0.00 0.00 0.00 44 1017.7
20190420140057 21 43 8.0 12.9 0.00 0.00 0.00 43 1017.8
20190420134629 21 47 9.7 14.5 0.00 0.00 0.00 43 1017.8
20190420133034 21 52 8.0 12.9 0.00 0.00 0.00 42 1018.0
20190420131640 21 53 8.0 12.9 0.00 0.00 0.00 42 1018.1
20190420130056 21 47 8.0 11.3 0.00 0.00 0.00 41 1018.3
20190420124629 22 44 8.0 12.9 0.00 0.00 0.00 40 1018.4
20190420123115 22 39 8.0 12.9 0.00 0.00 0.00 39 1018.5
20190420121635 22 44 8.0 12.9 0.00 0.00 0.00 39 1018.6
20190420120039 22 44 9.7 12.9 0.00 0.00 0.00 39 1018.6
20190420114656 22 49 8.0 14.5 0.00 0.00 0.00 39 1018.4
20190420114504 22 49 8.0 14.5 0.00 0.00 0.00 39 1018.5
20190420113058 22 48 8.0 14.5 0.00 0.00 0.00 39 1018.3
20190420111517 22 54 9.7 12.9 0.00 0.00 0.00 40 1018.3
20190420110101 22 54 8.0 9.7 0.00 0.00 0.00 40 1018.4
20190420104536 22 54 6.4 9.7 0.00 0.00 0.00 41 1018.4
20190420103121 22 54 6.4 8.0 0.00 0.00 0.00 41 1018.3
20190420101527 23 54 1.6 3.2 0.00 0.00 0.00 39 1018.4
20190420100126 23 54 3.2 4.8 0.00 0.00 0.00 37 1018.4
20190420094526 23 54 3.2 4.8 0.00 0.00 0.00 36 1018.4
20190420093128 23 54 4.8 8.0 0.00 0.00 0.00 36 1018.3
20190420091537 24 54 3.2 6.4 0.00 0.00 0.00 36 1018.3
20190420090124 24 54 4.8 6.4 0.00 0.00 0.00 35 1018.1
20190420084556 25 54 6.4 9.7 0.00 0.00 0.00 34 1017.9
20190420083204 25 54 6.4 8.0 0.00 0.00 0.00 33 1017.9
20190420081625 26 54 4.8 8.0 0.00 0.00 0.00 31 1017.8
20190420080217 26 54 3.2 8.0 0.00 0.00 0.00 30 1017.8
20190420074627 27 54 4.8 8.0 0.00 0.00 0.00 29 1017.7
20190420073013 27 54 6.4 11.3 0.00 0.00 0.00 28 1017.8
20190420071558 28 54 8.0 16.1 0.00 0.00 0.00 27 1017.8
20190420070008 28 55 8.0 14.5 0.00 0.00 0.00 26 1017.8
20190420064630 28 14 6.4 17.7 0.00 0.00 0.00 25 1017.9
20190420063138 29 37 4.8 14.5 0.00 0.00 0.00 26 1018.1
20190420063008 29 37 4.8 14.5 0.00 0.00 0.00 25 1018.1
20190420061634 29 4 8.0 9.7 0.00 0.00 0.00 25 1018.2
20190420060131 28 1 8.0 14.5 0.00 0.00 0.00 25 1018.3
20190420054526 28 356 8.0 16.1 0.00 0.00 0.00 25 1018.5
20190420053146 29 6 11.3 14.5 0.00 0.00 0.00 24 1018.6
20190420051511 30 3 8.0 20.9 0.00 0.00 0.00 24 1018.8
20190420050053 31 358 1.6 19.3 0.00 0.00 0.00 22 1019.0
20190420044632 30 310 4.8 14.5 0.00 0.00 0.00 22 1019.1
20190420043030 30 281 8.0 19.3 0.00 0.00 0.00 23 1019.3
20190420041603 29 317 11.3 22.5 0.00 0.00 0.00 24 1019.4
20190420040140 31 333 4.8 17.7 0.00 0.00 0.00 22 1019.6
20190420034527 31 359 8.0 14.5 0.00 0.00 0.00 22 1019.9
20190420033059 31 215 3.2 19.3 0.00 0.00 0.00 22 1020.1
20190420031616 30 341 8.0 16.1 0.00 0.00 0.00 24 1020.4
20190420030004 30 298 9.7 19.3 0.00 0.00 0.00 24 1020.6
20190420024537 29 333 9.7 22.5 0.00 0.00 0.00 24 1020.9
20190420023140 29 14 6.4 20.9 0.00 0.00 0.00 25 1021.1
20190420021642 28 34 8.0 19.3 0.00 0.00 0.00 27 1021.4
20190420020011 27 335 8.0 22.5 0.00 0.00 0.00 27 1021.6
20190420014528 27 337 9.7 19.3 0.00 0.00 0.00 26 1021.9
20190420013103 27 14 12.9 24.1 0.00 0.00 0.00 26 1022.1
20190420011645 27 34 12.9 24.1 0.00 0.00 0.00 27 1022.5
20190420010149 26 341 12.9 22.5 0.00 0.00 0.00 27 1022.8
20190420004554 25 359 16.1 22.5 0.00 0.00 0.00 28 1022.9
20190420003116 24 18 14.5 24.1 0.00 0.00 0.00 30 1023.0
20190420001636 23 23 11.3 19.3 0.00 0.00 0.00 34 1022.9